Wind_Speed
5 3 6 10 8 8 4 4 7 17 10 4 9 12 12 4 11 9 6 8 7 12 11 15 43 19 15 22 25 25 24 21 18 17 16 15 17 13 12 8 9 8 10 9
5 7 13 11 6 7 7 5 15 12 17 9 17 19 2 7 2 6 4 5 7 1 3 2 11 25 23 28 25 23 21 18 15 13 13 14 15 11 10 11 10 11 10 10
7 14 7 11 6 5 12 5 12 13 10 5 2 6 3 4 7 10 5 4 2 5 1 6 12 21 27 27 23 21 17 14 13 12 13 10 11 11 11 13 11 13 15 10
7 11 13 19 7 6 5 18 15 16 4 4 6 4 2 4 6 7 2 2 7 5 5 7 10 15 24 24 19 21 18 12 16 12 14 16 18 18 16 15 17 17 13 7
14 8 8 10 15 6 9 15 8 3 1 3 7 5 3 4 3 3 4 8 10 2 5 5 8 15 19 22 23 23 21 16 15 13 14 15 18 17 15 16 14 14 12 7
10 4 6 8 10 6 6 3 7 4 3 4 5 5 4 1 3 5 5 8 11 6 8 7 11 10 19 21 23 22 22 17 13 12 12 13 15 13 16 14 15 11 11 11
7 7 7 2 4 6 11 6 4 4 4 5 3 3 4 4 1 2 4 6 5 7 9 5 7 16 18 24 21 21 23 23 20 20 17 17 19 18 16 12 9 13 16 16
3 5 7 4 3 2 4 5 4 6 4 5 4 3 3 6 4 6 5 4 1 4 9 12 10 13 16 10 26 23 25 26 22 19 18 18 17 15 13 10 9 10 14 11
4 5 4 5 2 5 3 5 5 4 1 2 2 2 2 4 5 6 5 3 5 6 7 1 4 14 18 22 25 25 25 25 21 17 19 16 15 14 11 6 6 10 11 7
6 2 2 1 3 1 4 3 4 3 2 3 4 3 4 2 2 3 5 4 2 0 1 4 7 11 7 26 26 26 28 27 23 21 21 19 16 11 8 6 7 9 7 5
3 3 5 5 2 5 7 5 4 4 4 5 2 5 5 5 2 4 2 4 4 5 1 3 3 11 20 27 31 31 30 28 28 26 24 22 17 12 10 7 9 9 8 7
2 5 1 7 8 4 5 5 4 5 5 3 4 5 3 3 2 4 4 3 3 3 3 3 8 11 21 28 30 33 32 30 28 30 26 24 18 16 13 9 7 7 8 9
3 2 3 10 7 5 2 4 2 2 3 4 4 4 3 4 5 2 4 5 3 1 2 2 5 7 5 17 26 27 31 28 28 29 26 23 21 17 12 9 5 4 7 11
7 4 7 7 8 3 6 7 3 5 3 4 5 4 1 2 3 5 4 5 2 3 1 2 6 7 8 7 11 19 25 26 26 25 27 25 21 14 12 9 6 10 10 12
5 6 5 6 8 5 7 11 11 7 6 6 4 7 6 6 6 5 5 3 5 3 3 5 4 4 11 13 11 4 10 18 22 25 24 21 16 13 13 11 15 16 15 16
1 4 7 5 8 8 10 13 10 6 4 6 6 2 6 5 4 5 7 8 7 6 6 5 6 5 9 10 11 15 16 17 15 20 19 14 13 14 13 14 15 13 13 13
5 5 3 4 3 2 6 7 6 4 2 7 6 7 8 5 7 7 8 7 7 9 7 4 5 4 4 7 12 13 8 3 13 18 19 14 11 11 12 11 9 9 10 9
3 3 2 3 2 1 6 5 6 5 2 6 6 9 9 7 7 4 7 8 7 6 4 5 7 2 1 10 17 19 19 19 20 20 17 13 13 12 9 9 10 11 12 13
6 3 2 2 3 5 2 4 3 2 5 6 9 7 7 6 4 4 8 7 8 8 8 7 9 16 19 22 23 23 20 19 18 17 15 14 12 11 9 11 12 13 12 11
5 2 5 3 3 4 3 8 16 8 6 7 8 13 12 7 5 6 11 8 6 7 20 25 22 20 22 19 18 20 19 19 17 14 13 13 12 12 14 14 14 15 15 12
4 2 6 3 3 4 3 10 12 3 9 11 15 15 14 11 9 8 9 8 15 19 24 27 22 20 17 16 18 21 19 19 14 12 12 14 13 14 14 13 14 12 12 11
5 5 5 2 2 6 10 6 6 5 5 6 4 8 16 13 9 12 15 15 14 18 22 25 26 23 18 16 17 19 20 13 13 13 14 14 13 14 14 14 12 8 7 8
2 4 2 4 6 5 5 6 5 6 3 4 3 2 8 11 13 15 14 14 13 19 20 25 26 24 19 17 14 18 13 11 12 13 14 12 13 12 14 15 14 9 7 5
5 6 4 2 5 9 9 6 6 6 8 5 6 3 4 13 15 14 13 13 13 19 23 23 27 24 20 17 15 14 11 10 11 12 11 12 14 15 14 13 14 13 11 13
3 6 3 6 8 4 8 8 5 8 6 5 3 3 12 15 12 15 12 11 14 16 17 19 17 21 21 17 14 12 10 8 10 10 11 13 16 15 12 13 14 13 16 16
3 7 5 6 9 4 4 7 6 4 2 3 6 9 9 15 16 13 10 17 19 19 21 22 20 19 17 16 14 12 10 7 6 8 11 13 12 15 14 15 17 17 18 19
Wind_Direction
274 56 246 240 214 221 215 237 260 281 259 204 249 267 279 232 138 146 142 158 123 139 154 100 67 345 171 151 161 168 172 177 182 183 176 184 180 174 175 190 165 163 160 163
346 254 238 227 234 271 281 259 275 280 268 173 253 264 75 12 106 140 129 88 116 164 190 192 156 171 188 151 157 161 170 175 187 188 187 189 188 183 176 166 160 163 162 167
199 249 261 233 251 217 268 244 271 240 284 229 101 303 121 35 83 48 58 48 9 232 133 248 164 165 153 144 150 155 164 168 170 171 183 171 168 162 171 167 164 163 165 180
222 261 230 254 247 177 250 264 237 252 46 294 143 278 39 64 58 37 356 349 266 270 287 197 162 149 146 141 157 148 142 165 177 186 185 180 180 175 184 183 173 169 183 173
262 264 260 252 244 236 236 276 230 285 345 56 336 78 311 355 82 304 329 232 239 157 188 159 141 147 136 146 151 150 139 140 158 177 177 176 183 183 188 189 176 170 173 183
243 234 201 234 244 217 239 35 47 44 86 29 272 124 287 331 300 350 359 9 70 98 93 58 61 114 143 151 152 155 140 133 142 155 162 190 195 174 163 176 198 188 174 177
315 311 295 320 358 357 39 46 352 356 350 227 201 68 218 170 66 90 51 22 56 126 135 153 176 182 171 160 161 158 143 135 132 126 121 127 140 140 150 156 177 198 197 183
161 345 1 345 98 289 294 136 151 236 222 254 301 175 251 147 176 140 136 169 6 200 197 175 195 193 158 170 173 166 149 141 137 132 138 140 146 149 156 164 175 178 172 176
154 244 290 75 193 145 299 339 198 145 324 55 213 316 299 173 138 153 169 132 240 273 242 317 37 71 154 196 179 166 149 153 150 151 160 168 171 169 169 171 196 174 168 163
205 256 255 318 41 278 136 236 337 12 255 270 285 182 208 320 265 19 357 157 178 196 158 228 217 189 243 218 174 162 164 166 168 175 184 181 179 178 178 181 214 199 200 229
161 119 276 61 330 263 319 331 57 126 140 186 245 257 198 203 152 291 297 188 233 208 193 330 74 175 185 167 168 170 174 178 182 189 190 189 188 186 196 210 212 218 223 247
321 141 284 238 267 242 221 201 141 125 260 216 164 270 222 190 163 248 167 116 342 70 358 51 101 112 159 166 169 176 184 190 192 200 193 191 189 190 196 199 217 222 244 256
195 352 26 342 346 350 348 316 152 120 72 200 150 259 23 140 118 209 153 174 137 13 54 33 23 59 128 168 175 185 189 197 200 200 194 191 187 192 208 226 227 251 257 254
108 147 159 198 220 212 293 302 203 152 144 208 216 166 98 127 167 158 203 202 204 182 13 14 56 46 102 159 192 195 196 203 196 187 182 182 189 211 232 230 247 248 251 259
108 193 186 240 248 252 276 285 288 197 196 165 209 184 179 192 200 186 190 183 192 168 129 116 101 52 80 70 75 151 198 190 184 174 176 186 200 224 231 242 250 253 257 272
80 241 190 248 233 259 288 285 287 165 133 88 128 159 176 179 155 162 171 158 168 170 185 144 140 75 57 78 72 109 115 131 142 170 175 195 221 243 256 267 282 287 295 295
181 186 140 250 256 310 306 256 177 112 127 144 179 203 159 172 179 187 173 181 179 182 176 140 88 48 61 77 90 115 118 107 121 106 93 92 92 74 62 58 56 33 21 15
190 148 163 226 352 257 246 351 133 123 142 115 97 154 171 176 207 188 169 179 200 219 173 131 104 2 32 105 116 118 118 104 89 83 80 76 65 57 50 32 27 17 6 358
129 139 281 154 197 274 200 25 10 116 241 189 154 175 181 163 122 253 207 193 193 204 198 176 136 123 114 111 115 110 98 90 81 73 66 56 45 47 52 35 23 15 5 359
150 90 152 158 190 235 199 32 54 53 326 212 177 182 175 149 169 236 192 178 174 173 151 133 137 131 126 121 121 107 86 71 61 55 49 42 41 47 32 22 15 360 346 334
152 252 195 202 202 286 137 109 83 77 251 191 189 187 174 187 196 196 141 137 143 139 127 129 124 115 110 111 104 89 79 67 62 47 37 35 42 29 19 11 5 12 32 61
201 173 217 134 142 257 178 174 171 215 299 174 204 216 196 195 154 148 144 140 145 138 122 120 107 108 107 104 98 83 67 53 40 35 36 35 30 19 9 4 1 27 40 23
146 120 357 173 224 268 186 213 192 179 231 196 182 198 201 171 161 150 142 139 145 134 129 129 123 116 110 100 86 82 69 48 38 38 33 35 17 8 13 23 21 3 15 352
223 183 168 105 236 218 223 227 248 212 217 216 208 150 33 169 150 146 137 141 138 139 137 139 132 124 117 106 93 91 76 60 43 32 15 13 9 2 1 7 5 3 350 350
178 101 214 263 286 285 243 218 212 248 240 247 318 259 163 159 138 129 120 114 115 121 127 129 128 126 129 125 118 109 95 69 51 22 10 5 356 4 13 357 350 348 339 342
160 193 184 221 236 182 218 204 188 171 105 328 94 64 95 132 129 119 107 111 112 110 116 119 124 128 138 132 122 113 99 76 62 16 1 6 22 358 349 340 338 334 338 338
Height
778 801 815 800 795 788 796 803 809 786 774 783 785 778 765 761 766 772 771 771 775 776 776 768 746 785 786 785 790 795 801 804 807 809 810 814 815 818 820 821 822 825 827 827
795 809 785 777 780 786 792 803 801 787 767 782 773 776 770 772 771 771 772 779 782 785 777 771 758 774 777 784 792 795 801 806 807 808 812 817 818 819 821 822 822 824 826 827
804 786 771 779 781 790 790 799 794 795 771 765 772 789 776 778 777 780 778 779 784 784 786 780 775 777 780 783 790 794 802 806 806 809 814 813 818 825 826 824 823 822 823 825
791 771 776 774 783 779 805 762 773 779 784 806 774 819 788 788 791 787 789 786 783 786 784 784 784 781 780 782 793 795 799 803 806 808 812 813 818 820 823 826 824 822 822 823
784 777 779 781 773 762 783 759 769 763 778 787 787 808 806 795 801 803 794 782 776 785 783 785 784 784 786 789 794 797 796 804 806 810 811 812 818 819 821 825 828 825 823 822
773 755 761 761 754 756 755 763 774 784 797 824 798 807 817 812 809 802 794 779 773 781 787 786 781 785 788 791 795 799 795 803 806 808 811 814 819 819 819 824 827 825 823 821
776 771 754 746 761 755 767 793 825 827 829 827 793 808 807 802 798 798 792 785 779 778 779 783 779 783 789 790 798 799 795 800 803 806 811 815 819 819 820 823 826 822 819 819
802 807 767 751 764 773 775 790 824 835 838 822 792 816 804 793 792 793 791 787 780 779 773 766 776 781 789 784 792 798 796 799 802 805 812 817 819 819 818 821 823 822 819 819
799 795 756 751 755 763 776 798 779 803 807 821 808 807 794 792 793 794 794 792 788 781 776 776 774 785 771 788 793 797 795 800 802 808 813 816 815 816 817 819 822 820 819 818
775 797 765 754 752 759 767 767 799 812 822 828 816 806 810 801 795 792 793 794 791 785 781 776 772 774 781 784 791 794 797 798 801 808 814 812 813 815 817 816 822 820 818 817
765 783 783 762 776 781 778 789 789 800 814 828 834 821 794 794 792 794 792 791 790 787 784 779 772 770 776 783 787 792 796 797 801 807 812 812 812 813 814 816 818 818 817 815
764 786 797 785 763 759 767 774 785 815 807 812 819 816 781 787 790 790 791 789 788 787 785 780 778 773 779 782 787 790 794 797 800 805 807 810 812 812 814 815 816 815 814 813
762 795 816 805 786 769 768 767 767 789 799 802 817 811 785 787 793 790 791 789 791 788 786 783 780 781 785 787 786 789 792 795 798 803 805 807 810 811 813 814 813 812 812 810
761 790 799 818 797 782 786 771 767 784 809 800 801 795 793 793 792 793 790 790 788 789 790 790 790 790 789 791 791 791 793 795 800 799 802 805 806 810 811 811 809 808 806 806
765 788 787 783 777 770 772 768 763 777 778 790 785 792 793 792 789 791 794 791 790 790 792 793 792 791 791 790 790 793 796 796 795 796 799 802 804 807 808 806 805 803 803 802
767 784 781 781 767 767 770 760 758 760 770 780 785 791 784 783 783 787 789 791 791 791 791 788 790 789 789 791 791 793 798 800 799 798 797 801 803 807 804 803 803 802 801 800
778 783 788 793 769 770 783 760 754 765 764 770 791 781 782 785 782 783 785 786 786 785 786 786 785 786 788 789 791 795 798 799 799 799 799 802 804 803 801 802 801 800 801 799
775 780 787 790 783 801 766 747 749 760 766 767 773 777 777 779 777 775 777 781 783 782 782 783 785 788 788 788 789 794 796 798 799 799 802 803 802 801 801 799 799 798 797 796
759 778 791 795 799 776 761 760 769 767 778 767 772 775 775 776 777 776 772 772 774 776 778 783 787 789 788 790 792 794 798 800 801 802 803 802 802 801 799 798 798 797 796 795
755 762 787 795 794 794 779 771 757 757 789 763 762 769 769 775 789 777 767 769 771 771 772 778 784 789 789 792 793 796 799 800 802 804 804 804 802 800 799 798 797 796 794 792
772 780 785 794 786 775 770 768 761 797 779 745 750 754 759 766 758 754 760 768 772 773 774 780 785 790 794 796 796 798 801 803 804 804 803 802 801 801 800 798 797 795 792 790
773 782 785 781 784 783 751 762 770 758 747 740 748 747 748 747 751 750 755 764 772 775 778 782 785 790 793 795 797 800 800 804 803 803 802 802 803 802 801 799 796 795 794 793
777 777 781 773 777 752 746 746 744 747 746 744 745 745 740 747 747 750 757 763 772 775 778 781 785 790 794 795 796 798 801 803 805 804 804 804 804 804 802 799 797 795 794 793
766 754 762 766 746 749 743 741 740 739 740 738 738 733 742 743 746 751 755 762 768 774 776 782 782 787 793 795 796 799 803 805 807 808 807 805 803 802 801 800 798 795 794 792
749 753 763 762 745 741 740 737 732 734 735 734 733 727 728 741 749 752 759 766 771 775 780 782 788 787 792 794 797 800 801 804 805 808 806 804 803 801 800 799 798 795 793 791
741 750 762 755 736 732 732 729 729 735 734 734 736 738 739 741 746 756 765 769 773 778 782 786 790 791 795 797 799 800 801 803 804 805 805 804 803 801 800 798 795 793 791 788